User: anonymous   Login
Location: Unspecified
(0.0000°N, 0.0000°E)
Time: 16:57:53
(UTC+00:00)
Language:

ISS - Orbit

View from above orbital plane
View from above orbital plane
View from above satellite
View from above satellite

Ground track
Ground track

The orbit data is extracted from the following two-line orbital elements,

1 25544U 98067A   15244.94032382 -.00000699  00000-0 -30909-5 0  9999
2 25544  51.6442  60.7943 0002397 169.9165 283.1695 15.55269059959982
Epoch (UTC): 01 September 2015 22:34:03
Eccentricity: 0.0002397
inclination: 51.6442°
perigee height: 400 km
apogee height: 403 km
right ascension of ascending node: 60.7943°
argument of perigee: 169.9165°
revolutions per day: 15.55269059
mean anomaly at epoch: 283.1695°
orbit number at epoch: 95998

The dashed part of the orbit path shows where the satellite is in the earth's shadow,  

DLR